Date,TemperatureHighF,TemperatureAvgF,TemperatureLowF,DewpointHighF,DewpointAvgF,DewpointLowF,HumidityHigh,HumidityAvg,HumidityLow,PressureMaxIn,PressureMinIn,WindSpeedMaxMPH,WindSpeedAvgMPH,GustSpeedMaxMPH,PrecipitationSumIn
2013-1-1,13,2,-10,9,-2,-13,84,83,82,0.00,40.00,2,2,7,0.00
2013-1-2,17,17,16,16,15,12,94,91,84,0.00,40.00,4,2,9,0.00
2013-1-3,17,13,9,12,7,2,90,78,61,0.00,40.00,6,2,12,0.00
2013-1-4,30,20,11,14,12,10,94,71,46,0.00,40.00,6,1,9,0.00
2013-1-6,21,19,18,16,13,8,90,76,57,0.00,40.00,0,0,0,0.00
2013-1-7,36,30,21,22,20,17,82,66,51,0.00,40.00,0,0,0,0.00
2013-1-8,21,21,21,20,20,20,93,93,93,0.00,40.00,0,0,0,0.00
2013-1-9,33,30,20,27,25,17,91,82,70,0.00,40.00,12,8,22,0.00
2013-1-10,39,34,20,33,21,12,98,67,33,0.00,40.00,0,0,0,0.00
2013-1-11,34,34,34,34,34,33,98,98,98,0.00,40.00,0,0,0,0.00
2013-1-12,27,22,17,27,18,10,98,86,73,0.00,40.00,13,6,23,0.00
2013-1-13,7,4,2,-1,-2,-2,82,77,67,0.00,40.00,0,0,0,0.00
2013-1-14,10,7,-1,1,-2,-5,84,70,56,0.00,40.00,8,2,16,0.00
2013-1-15,20,12,6,12,7,4,90,81,59,0.00,40.00,2,0,11,0.00
2013-1-16,32,30,29,28,24,17,95,80,59,0.00,40.00,10,7,18,0.00
2013-1-17,8,5,1,-1,-7,-12,85,59,43,0.00,40.00,0,0,0,0.00
2013-1-18,36,24,12,24,19,7,98,82,62,0.00,40.00,5,0,9,0.00
2013-1-19,20,20,20,20,20,20,98,98,98,0.00,40.00,0,0,0,0.00
2013-1-20,2,1,0,-8,-9,-9,65,63,58,0.00,40.00,7,3,13,0.00
2013-1-21,-7,-10,-14,-16,-19,-22,66,65,65,0.00,40.00,0,0,0,0.00
2013-1-22,-7,-7,-7,-14,-14,-14,71,71,71,0.00,40.00,0,0,0,0.00
2013-1-23,7,3,-3,2,-7,-13,78,64,40,0.00,40.00,0,0,0,0.00
2013-1-31,2,2,2,-8,-8,-8,63,63,63,0.00,40.00,0,0,0,0.00
2013-2-1,0,0,0,-19,-19,-19,41,41,41,0.00,40.00,0,0,0,0.00
2013-2-2,6,6,6,0,0,0,77,77,77,0.00,40.00,0,0,0,0.00
2013-2-3,12,10,7,0,-2,-3,73,58,49,0.00,40.00,0,0,0,0.00
2013-2-4,13,7,-6,-10,-12,-13,72,44,34,0.00,40.00,0,0,0,0.00
2013-2-5,24,21,15,16,6,0,76,53,40,0.00,40.00,7,4,12,0.00
2013-2-6,22,18,12,18,15,9,90,86,80,0.00,40.00,0,0,0,0.00
2013-2-7,27,25,24,23,20,19,95,82,72,0.00,40.00,6,-141,12,0.00
2013-2-8,21,18,16,17,15,14,93,87,80,0.00,40.00,4,2,7,0.00
2013-2-10,30,30,30,30,30,30,98,98,98,0.00,40.00,0,0,0,0.00
2013-2-11,27,26,25,17,17,17,71,68,67,0.00,40.00,12,10,19,0.00
2013-2-12,25,17,9,17,12,6,87,80,74,0.00,40.00,0,0,0,0.00
2013-2-13,35,32,30,22,22,21,70,64,59,0.00,40.00,4,2,7,0.00
2013-2-15,17,13,6,-1,-2,-3,72,51,39,0.00,40.00,9,6,24,0.00
2013-2-16,17,7,0,-1,-2,-6,85,69,44,0.00,40.00,5,2,10,0.00
2013-2-17,28,13,0,10,3,-4,86,70,46,0.00,40.00,0,0,0,0.00
2013-2-19,8,5,3,-4,-7,-10,71,59,43,0.00,40.00,0,0,0,0.00
2013-2-20,13,11,5,-1,-1,-3,71,57,55,0.00,40.00,0,0,0,0.00
2013-2-21,21,10,-8,15,3,-11,87,75,65,0.00,40.00,0,0,0,0.00
2013-2-22,27,27,27,23,23,23,87,87,87,0.00,40.00,0,0,0,0.00
2013-2-23,29,26,21,20,19,18,91,74,67,0.00,40.00,0,0,0,0.00
2013-2-24,36,23,12,20,16,11,98,77,47,0.00,40.00,0,0,0,0.00
2013-2-25,36,22,8,21,15,6,96,79,47,0.00,40.00,4,0,7,0.00
2013-2-26,37,17,9,24,14,8,98,88,57,0.00,40.00,0,0,0,0.00
2013-2-27,34,31,28,25,23,22,82,72,61,0.00,40.00,6,2,16,0.00
2013-2-28,28,28,28,19,18,18,71,70,68,0.00,40.00,0,0,0,0.00
2013-3-4,27,27,27,6,6,6,42,42,42,0.00,40.00,10,10,18,0.00
2013-3-5,25,22,19,23,20,17,94,93,91,0.00,40.00,0,0,0,0.00
2013-3-6,23,12,4,11,7,3,96,82,59,0.00,40.00,0,0,0,0.00
2013-3-7,33,11,-5,9,2,-7,92,72,35,0.00,40.00,3,1,5,0.00
2013-3-8,26,26,26,22,22,22,87,87,87,0.00,40.00,0,0,0,0.00
2013-3-9,35,35,35,35,35,35,98,98,98,0.00,40.00,0,0,0,0.00
2013-3-11,31,27,25,22,19,16,83,73,56,0.00,40.00,0,0,0,0.00
2013-3-12,30,23,16,18,10,2,95,62,30,0.00,40.00,0,0,0,0.00
2013-3-13,31,22,11,9,5,2,92,51,31,0.00,40.00,0,0,0,0.00
2013-3-14,40,30,22,25,20,11,92,67,48,0.00,40.00,6,1,9,0.00
2013-3-15,32,29,21,30,22,13,98,77,47,0.00,40.00,0,0,0,0.00
2013-3-16,23,19,15,15,5,-1,91,56,36,0.00,40.00,10,2,19,0.00
2013-3-17,25,13,-7,5,-3,-11,81,52,31,0.00,40.00,6,2,14,0.00
2013-3-18,27,22,17,26,13,8,96,71,52,0.00,40.00,0,0,0,0.00
2013-3-19,24,17,10,2,-3,-12,71,43,29,0.00,40.00,17,7,33,0.00
2013-3-20,22,13,4,1,-5,-13,57,46,36,0.00,40.00,9,4,19,0.00
2013-3-21,27,13,-5,7,1,-8,87,62,37,0.00,40.00,7,2,14,0.00
2013-3-22,37,17,-1,13,5,-3,92,67,28,0.00,40.00,7,1,13,0.00
2013-3-23,38,28,16,18,15,13,90,63,37,0.00,40.00,4,0,9,0.00
2013-3-24,33,29,25,20,18,17,74,65,53,0.00,40.00,0,0,0,0.00
2013-3-25,39,28,19,19,15,13,79,61,35,0.00,40.00,6,0,16,0.00
2013-3-26,39,35,30,20,17,15,65,48,36,0.00,40.00,0,0,0,0.00
2013-3-27,35,32,29,25,24,23,83,74,63,0.00,40.00,0,0,0,0.00
2013-3-28,47,31,15,20,14,10,98,59,23,0.00,40.00,1,0,2,0.00
2013-3-29,51,37,23,31,24,18,94,62,34,0.00,40.00,6,1,14,0.00
2013-3-30,51,43,38,41,34,-100,98,80,38,0.00,40.00,10,4,14,0.00
2013-3-31,38,33,26,32,19,2,96,61,24,0.00,40.00,13,3,27,0.00
2013-4-1,33,26,17,11,7,4,68,47,29,0.00,40.00,8,1,19,0.00
2013-4-2,37,26,12,16,9,4,93,54,26,0.00,40.00,0,0,6,0.00
2013-4-3,45,29,11,29,15,7,98,64,22,0.00,40.00,7,1,19,0.00
2013-4-4,48,41,33,33,24,12,81,53,29,0.00,40.00,11,2,20,0.00
2013-4-5,40,30,17,31,15,12,95,57,31,0.00,40.00,4,0,11,0.00
2013-4-6,44,37,33,35,31,26,98,80,51,0.00,40.00,9,1,14,0.00
2013-4-7,41,37,34,34,32,29,98,84,64,0.00,40.00,5,2,11,0.00
2013-4-8,42,38,36,40,36,34,98,94,86,0.00,40.00,0,0,0,0.00
2013-4-9,42,36,33,35,26,14,95,69,39,0.00,40.00,0,0,9,0.00
2013-4-10,40,35,31,20,14,6,62,44,25,0.00,40.00,0,0,0,0.00
2013-4-11,36,32,28,29,23,10,98,74,34,0.00,40.00,19,7,32,0.00
2013-4-12,37,31,28,31,26,21,98,84,56,0.00,40.00,8,4,17,0.00
2013-4-13,36,29,24,26,19,11,98,70,36,0.00,40.00,7,1,12,0.00
2013-4-14,35,29,18,33,25,13,98,86,41,0.00,40.00,21,5,30,0.00
2013-4-15,39,36,33,35,28,24,98,74,57,0.00,40.00,15,5,29,0.00
2013-4-16,45,38,30,29,24,17,77,59,34,0.00,40.00,9,5,17,0.00
2013-4-17,40,34,27,33,26,24,98,73,53,0.00,40.00,0,0,0,0.00
2013-4-18,33,32,31,32,32,30,98,97,91,0.00,40.00,7,4,24,0.00
2013-4-19,36,31,20,31,25,15,98,81,43,0.00,40.00,12,6,29,0.00
2013-4-20,41,25,8,22,10,1,97,65,19,0.00,40.00,4,1,10,0.00
2013-4-21,41,36,25,40,30,13,98,79,47,0.00,40.00,9,3,22,0.00
2013-4-22,44,37,32,39,26,12,98,72,30,0.00,40.00,9,3,20,0.00
2013-4-23,42,34,27,31,21,5,98,65,23,0.00,40.00,7,1,15,0.00
2013-4-24,49,34,20,36,23,15,97,72,26,0.00,40.00,6,1,14,0.00
2013-4-25,51,39,28,31,23,12,98,61,22,0.00,40.00,11,5,18,0.00
2013-4-26,70,55,38,35,29,18,77,43,14,0.00,40.00,8,4,16,0.00
2013-4-27,75,53,30,44,27,15,98,52,10,0.00,40.00,7,0,14,0.00
2013-4-28,77,64,51,49,44,40,82,52,28,0.00,40.00,2,0,9,0.00
2013-4-29,75,60,42,47,36,28,77,46,19,0.00,40.00,6,3,14,0.00
2013-4-30,72,63,55,58,42,23,88,51,21,0.00,40.00,18,8,26,0.00
2013-5-1,56,42,35,36,30,22,98,65,41,0.00,40.00,9,3,17,0.00
2013-5-2,44,39,35,23,22,20,58,49,39,0.00,40.00,0,0,0,0.00
2013-5-3,36,33,30,33,29,20,98,87,51,0.00,40.00,6,1,15,0.00
2013-5-4,43,36,32,38,34,31,98,93,80,0.00,40.00,7,2,15,0.00
2013-5-5,63,45,36,40,36,35,98,77,38,0.00,40.00,7,1,13,0.00
2013-5-6,75,55,36,46,38,33,98,63,23,0.00,40.00,4,1,10,0.00
2013-5-7,78,59,40,47,38,28,98,58,17,0.00,40.00,5,1,12,0.00
2013-5-8,75,61,45,57,44,37,94,60,26,0.00,40.00,11,2,14,0.00
2013-5-9,59,49,42,56,44,25,98,85,50,0.00,40.00,14,3,31,0.00
2013-5-10,64,46,31,27,18,-100,79,43,9,0.00,40.00,9,3,16,0.00
2013-5-11,56,43,37,35,23,-100,65,48,32,0.00,40.00,14,8,34,0.00
2013-5-12,55,41,25,23,16,10,80,42,18,0.00,40.00,9,2,20,0.00
2013-5-13,66,48,26,35,26,17,85,48,19,0.00,40.00,11,4,23,0.00
2013-5-14,92,65,40,42,37,22,92,44,11,0.00,40.00,21,5,40,0.00
2013-5-15,80,66,48,45,38,28,85,42,15,0.00,40.00,12,6,23,0.00
2013-5-16,79,56,43,43,18,-100,91,42,14,0.00,40.00,9,4,16,0.00
2013-5-17,70,61,55,56,37,-100,93,48,19,0.00,40.00,10,5,20,0.00
2013-5-18,78,63,53,63,56,52,98,82,47,0.00,40.00,7,1,15,0.00
2013-5-19,82,68,58,63,60,54,98,78,40,0.00,40.00,7,1,16,0.00
2013-5-20,71,58,51,61,54,50,98,88,53,0.00,40.00,8,5,18,0.00
2013-5-21,50,47,44,49,46,42,98,95,81,0.00,40.00,7,5,20,0.00
2013-5-22,51,46,42,47,43,42,98,90,76,0.00,40.00,9,6,19,0.00
2013-5-23,62,50,40,42,25,9,89,46,13,0.00,40.00,12,6,21,0.00
2013-5-24,67,51,30,35,27,19,98,51,16,0.00,40.00,2,0,2,0.00
2013-5-25,65,58,53,51,43,37,94,60,41,0.00,40.00,0,0,0,0.00
2013-5-26,69,57,44,42,33,23,92,47,19,0.00,40.00,4,1,9,0.00
2013-5-27,63,58,53,52,45,36,79,63,41,0.00,40.00,4,0,7,0.00
2013-5-28,62,57,53,56,53,51,97,87,76,0.00,40.00,0,0,0,0.00
2013-5-29,76,62,56,63,57,53,98,87,61,0.00,40.00,0,0,0,0.00
2013-5-30,80,70,63,65,60,53,98,73,40,0.00,40.00,0,0,0,0.00
2013-5-31,78,65,60,64,60,47,98,85,33,0.00,40.00,10,3,27,0.00
2013-6-1,65,57,49,60,52,-100,98,87,69,0.00,40.00,8,3,21,0.00
2013-6-2,65,54,45,43,35,29,81,52,26,0.00,40.00,7,3,14,0.00
2013-6-3,69,54,38,44,34,27,98,60,21,0.00,40.00,4,0,7,0.00
2013-6-4,64,58,52,53,46,36,98,67,48,0.00,40.00,6,2,15,0.00
2013-6-5,55,53,50,54,52,49,98,97,92,0.00,40.00,9,2,15,0.00
2013-6-6,55,51,47,51,48,46,98,92,77,0.00,40.00,6,3,14,0.00
2013-6-7,65,54,49,53,48,44,98,82,46,0.00,40.00,6,2,7,0.00
2013-6-8,72,61,51,54,49,43,98,69,37,0.00,40.00,6,2,17,0.00
2013-6-9,61,58,55,59,55,48,98,92,64,0.00,40.00,9,4,17,0.00
2013-6-10,59,56,54,59,56,53,98,98,98,0.00,40.00,2,1,4,0.00
2013-6-11,79,73,60,63,56,49,94,58,39,0.00,40.00,6,2,12,0.00
2013-6-12,75,66,54,64,57,41,98,75,39,0.00,40.00,5,2,10,0.00
2013-6-13,76,62,52,51,47,41,89,60,30,0.00,40.00,6,1,14,0.00
2013-6-14,76,72,55,64,52,49,98,53,40,0.00,40.00,6,4,18,0.00
2013-6-15,77,69,60,64,62,58,98,79,56,0.00,40.00,7,2,16,0.00
2013-6-16,72,58,49,59,52,43,98,84,35,0.00,40.00,5,1,12,0.00
2013-6-17,75,62,51,55,49,40,98,67,40,0.00,40.00,7,3,15,0.00
2013-6-18,76,57,44,52,43,39,98,65,27,0.00,40.00,7,3,16,0.00
2013-6-19,84,68,53,57,53,48,94,61,29,0.00,40.00,4,2,12,0.00
2013-6-20,84,75,68,62,60,57,73,61,46,0.00,40.00,10,-76,16,0.00
2013-6-22,76,71,62,67,65,61,96,83,70,0.00,40.00,7,4,12,0.00
2013-6-23,83,71,59,68,62,56,98,78,42,0.00,40.00,12,5,27,0.00
2013-6-24,85,72,58,70,62,53,98,74,34,0.00,40.00,4,0,10,0.00
2013-6-25,86,73,60,69,62,58,98,73,38,0.00,40.00,7,1,13,0.00
2013-6-26,85,77,69,73,68,61,98,77,47,0.00,40.00,9,3,19,0.00
2013-6-27,81,68,62,68,64,49,98,89,34,0.00,40.00,9,2,17,0.00
2013-6-28,74,65,58,65,60,57,98,86,56,0.00,40.00,14,5,24,0.00
2013-6-29,73,64,59,63,59,51,98,86,49,0.00,40.00,6,3,14,0.00
2013-6-30,68,55,48,58,52,48,98,90,56,0.00,40.00,1,0,3,0.00
2013-7-1,78,63,53,60,54,46,98,76,32,0.00,40.00,6,1,13,0.00
2013-7-2,76,59,49,54,49,43,93,72,31,0.00,40.00,9,2,12,0.00
2013-7-3,70,57,50,54,52,47,98,83,43,0.00,40.00,3,1,5,0.00
2013-7-4,88,73,59,58,55,50,93,57,30,0.00,40.00,6,2,19,0.00
2013-7-5,88,79,68,57,56,53,66,47,34,0.00,40.00,10,4,29,0.00
2013-7-6,84,77,71,71,62,56,75,60,46,0.00,40.00,8,3,16,0.00
2013-7-7,90,78,65,73,67,64,98,72,50,0.00,40.00,7,2,13,0.00
2013-7-8,81,63,55,68,58,-100,98,90,52,0.00,40.00,6,2,10,0.00
2013-7-9,82,71,64,70,66,62,98,84,51,0.00,40.00,9,4,26,0.00
2013-7-10,75,64,58,62,52,-100,93,72,37,0.00,40.00,8,4,17,0.00
2013-7-11,73,61,52,62,55,51,98,84,51,0.00,40.00,2,0,4,0.00
2013-7-12,87,77,68,58,56,54,65,50,36,0.00,40.00,7,2,22,0.00
2013-7-13,76,71,65,68,63,53,98,77,48,0.00,40.00,7,3,14,0.00
2013-7-14,85,75,69,69,62,58,93,66,41,0.00,40.00,4,2,12,0.00
2013-7-15,88,71,62,67,65,58,98,83,36,0.00,40.00,5,1,12,0.00
2013-7-16,92,82,72,72,66,60,96,62,36,0.00,40.00,9,2,17,0.00
2013-7-17,93,78,70,72,67,59,98,73,32,0.00,40.00,9,2,21,0.00
2013-7-18,94,86,74,71,65,61,92,52,33,0.00,40.00,10,4,26,0.00
2013-7-19,81,77,72,72,61,50,98,61,34,0.00,40.00,9,3,19,0.00
2013-7-20,71,62,61,62,49,-100,95,72,43,0.00,40.00,6,1,12,0.00
2013-7-21,80,70,55,64,54,45,92,60,46,0.00,40.00,7,2,15,0.00
2013-7-22,76,68,65,65,60,49,97,81,41,0.00,40.00,4,2,13,0.00
2013-7-23,74,61,55,54,49,40,93,68,30,0.00,40.00,9,1,17,0.00
2013-7-24,76,62,51,56,51,49,98,71,39,0.00,40.00,7,1,12,0.00
2013-7-25,79,69,60,64,59,53,98,73,41,0.00,40.00,11,2,19,0.00
2013-7-26,64,60,55,62,54,43,98,81,61,0.00,40.00,9,4,22,0.00
2013-7-27,55,52,48,53,49,44,98,88,81,0.00,40.00,9,4,16,0.00
2013-7-28,70,56,50,53,48,46,93,75,42,0.00,40.00,6,3,17,0.00
2013-7-29,67,54,46,54,50,45,98,87,63,0.00,40.00,1,0,4,0.00
2013-7-30,70,66,61,61,60,59,96,83,69,0.00,40.00,5,1,7,0.00
2013-7-31,74,63,56,64,56,43,98,83,46,0.00,40.00,9,2,17,0.00
2013-8-1,73,56,46,53,48,43,98,78,34,0.00,40.00,7,2,14,0.00
2013-8-2,70,70,70,49,49,49,47,47,47,0.00,40.00,0,0,0,0.00
2013-8-3,53,51,49,50,49,49,98,94,89,0.00,40.00,0,0,0,0.00
2013-8-4,75,55,44,52,47,44,98,79,35,0.00,40.00,2,0,7,0.00
2013-8-5,80,67,59,67,60,54,98,81,45,0.00,40.00,6,2,11,0.00
2013-8-6,76,64,53,64,59,53,98,87,46,0.00,40.00,3,1,11,0.00
2013-8-7,61,59,58,60,58,57,98,98,98,0.00,40.00,4,3,11,0.00
2013-8-8,74,66,50,60,52,48,98,65,42,0.00,40.00,9,2,17,0.00
2013-8-9,64,56,48,58,51,45,98,88,50,0.00,40.00,6,0,9,0.00
2013-8-10,70,61,55,56,53,45,94,78,41,0.00,40.00,0,0,0,0.00
2013-8-11,72,55,47,59,51,46,98,88,44,0.00,40.00,1,0,7,0.00
2013-8-12,73,62,54,62,57,49,98,85,43,0.00,40.00,7,1,13,0.00
2013-8-13,68,54,44,54,48,42,98,85,39,0.00,40.00,1,0,4,0.00
2013-8-14,70,52,42,53,44,-100,98,83,40,0.00,40.00,6,0,9,0.00
2013-8-15,80,57,51,56,40,-100,98,71,30,0.00,40.00,4,1,11,0.00
2013-8-16,80,60,50,58,50,-100,98,80,31,0.00,40.00,9,1,15,0.00
2013-8-17,74,58,51,57,49,-100,98,80,44,0.00,40.00,4,0,10,0.00
2013-8-18,80,64,55,58,54,48,96,73,33,0.00,40.00,11,1,19,0.00
2013-8-19,87,72,66,66,56,-100,79,64,42,0.00,40.00,6,1,13,0.00
2013-8-20,92,79,68,72,66,64,91,68,40,0.00,40.00,6,2,15,0.00
2013-8-21,89,76,64,73,69,55,98,80,49,0.00,40.00,4,1,15,0.00
2013-8-22,83,69,57,60,46,36,86,47,18,0.00,40.00,4,1,10,0.00
2013-8-23,77,59,45,63,51,45,98,77,35,0.00,40.00,3,1,11,0.00
2013-8-24,90,78,70,70,63,-100,87,62,41,0.00,40.00,9,3,28,0.00
2013-8-25,98,85,75,73,70,65,88,63,35,0.00,40.00,11,3,19,0.00
2013-8-26,93,83,74,76,73,68,97,74,49,0.00,40.00,4,1,12,0.00
2013-8-27,86,76,72,75,72,69,98,90,58,0.00,40.00,0,0,0,0.00
2013-8-28,83,76,73,63,61,58,72,59,42,0.00,40.00,2,0,7,0.00
2013-8-29,93,79,65,72,66,63,98,69,38,0.00,40.00,7,1,15,0.00
2013-8-30,79,70,65,67,63,54,98,82,47,0.00,40.00,7,1,21,0.00
2013-8-31,83,66,54,63,56,-100,98,77,40,0.00,40.00,5,1,8,0.00
2013-9-1,72,67,58,62,56,50,97,71,54,0.00,40.00,13,4,19,0.00
2013-9-2,68,56,46,53,48,42,98,77,39,0.00,40.00,4,2,10,0.00
2013-9-3,67,50,38,55,46,37,98,88,55,0.00,40.00,2,-48,6,0.00
2013-9-4,75,64,57,60,55,48,98,78,41,0.00,40.00,6,1,14,0.00
2013-9-5,70,55,46,53,49,45,98,84,46,0.00,40.00,3,1,6,0.00
2013-9-6,91,72,63,67,62,53,98,74,27,0.00,40.00,3,1,14,0.00
2013-9-7,90,76,65,65,60,-100,94,61,36,0.00,40.00,11,2,22,0.00
2013-9-8,67,61,58,60,56,42,98,84,41,0.00,40.00,0,0,0,0.00
2013-9-9,83,69,60,72,66,59,98,92,61,0.00,40.00,5,2,12,0.00
2013-9-10,82,70,65,70,63,55,98,81,40,0.00,40.00,7,3,14,0.00
2013-9-11,78,64,58,62,57,48,98,81,42,0.00,40.00,6,0,12,0.00
2013-9-12,69,55,46,55,49,38,98,83,33,0.00,40.00,0,0,2,0.00
2013-9-13,63,45,36,49,41,35,98,87,40,0.00,40.00,4,0,7,0.00
2013-9-14,73,52,44,58,45,-100,98,83,31,0.00,40.00,5,2,14,0.00
2013-9-15,60,54,41,55,49,40,98,85,51,0.00,40.00,4,1,9,0.00
2013-9-16,53,39,32,47,37,32,98,93,55,0.00,40.00,2,0,5,0.00
2013-9-17,71,59,40,55,44,39,98,64,36,0.00,40.00,7,3,17,0.00
2013-9-18,68,60,58,67,60,57,98,98,96,0.00,40.00,3,1,9,0.00
2013-9-19,77,69,63,69,66,63,98,90,73,0.00,40.00,9,5,16,0.00
2013-9-20,61,58,45,60,52,44,98,82,55,0.00,40.00,12,7,21,0.00
2013-9-21,61,52,43,48,37,-100,98,66,39,0.00,40.00,2,1,11,0.00
2013-9-22,66,50,36,40,39,36,98,70,39,0.00,40.00,9,4,16,0.00
2013-9-23,71,63,51,51,46,43,86,56,36,0.00,40.00,0,0,0,0.00
2013-9-24,73,58,47,52,48,44,98,71,36,0.00,40.00,0,0,0,0.00
2013-9-25,71,53,41,53,47,41,98,82,45,0.00,40.00,1,0,9,0.00
2013-9-26,77,68,51,55,50,48,98,57,40,0.00,40.00,7,3,23,0.00
2013-9-27,80,72,65,59,56,54,69,58,46,0.00,40.00,5,0,17,0.00
2013-9-28,72,59,45,63,51,-100,98,81,53,0.00,40.00,1,0,2,0.00
2013-9-29,69,52,43,45,43,39,98,78,39,0.00,40.00,4,2,14,0.00
2013-9-30,77,68,59,46,44,39,53,42,32,0.00,40.00,7,5,21,0.00
2013-10-2,56,45,36,53,42,35,98,92,58,0.00,40.00,9,2,16,0.00
2013-10-3,55,54,53,55,53,52,98,98,98,0.00,40.00,6,2,20,0.00
2013-10-4,58,55,53,54,53,51,98,93,77,0.00,40.00,10,7,22,0.00
2013-10-5,56,54,50,56,54,50,98,98,98,0.00,40.00,9,6,22,0.00
2013-10-6,51,49,47,50,49,47,98,97,93,0.00,40.00,3,1,8,0.00
2013-10-7,60,44,34,42,38,32,98,83,34,0.00,40.00,6,1,9,0.00
2013-10-8,58,49,40,44,41,38,98,77,48,0.00,40.00,4,1,14,0.00
2013-10-9,73,62,55,50,44,40,84,52,37,0.00,40.00,0,0,0,0.00
2013-10-10,74,61,53,50,45,43,84,59,33,0.00,40.00,6,1,15,0.00
2013-10-11,73,64,56,53,50,47,80,61,41,0.00,40.00,9,4,26,0.00
2013-10-12,55,52,45,47,45,43,94,77,75,0.00,40.00,6,4,17,0.00
2013-10-13,45,40,37,44,39,37,98,97,94,0.00,40.00,4,3,6,0.00
2013-10-14,38,34,32,38,34,31,98,98,98,0.00,40.00,0,0,0,0.00
2013-10-15,50,48,46,49,47,45,98,98,98,0.00,40.00,5,2,10,0.00
2013-10-16,44,40,35,42,38,34,98,96,95,0.00,40.00,4,2,10,0.00
2013-10-17,54,43,34,42,38,34,98,85,47,0.00,40.00,2,0,6,0.00
2013-10-18,43,41,39,42,38,35,98,93,76,0.00,40.00,6,1,11,0.00
2013-10-19,44,38,33,38,35,30,98,91,56,0.00,40.00,3,0,9,0.00
2013-10-20,33,31,27,32,30,27,98,98,98,0.00,40.00,4,1,7,0.00
2013-10-21,35,34,32,32,25,14,95,72,42,0.00,40.00,11,8,21,0.00
2013-10-22,33,30,27,29,27,26,98,89,75,0.00,40.00,4,1,7,0.00
2013-10-23,35,33,30,30,22,16,98,67,46,0.00,40.00,4,3,14,0.00
2013-10-24,40,38,32,31,26,17,86,62,51,0.00,40.00,10,4,17,0.00
2013-10-25,52,40,28,35,29,23,98,69,41,0.00,40.00,8,4,20,0.00
2013-10-26,50,42,38,36,25,-100,64,53,45,0.00,40.00,11,6,22,0.00
2013-10-27,53,38,28,30,26,21,98,66,33,0.00,40.00,6,0,15,0.00
2013-10-28,41,34,27,28,20,-100,94,61,32,0.00,40.00,0,0,0,0.00
2013-10-29,36,33,25,35,29,22,98,86,58,0.00,40.00,0,0,0,0.00
2013-10-30,47,42,35,47,42,35,98,98,98,0.00,40.00,4,2,7,0.00
2013-10-31,47,44,40,47,44,40,98,98,98,0.00,40.00,7,2,13,0.00
2013-11-1,45,40,35,40,35,28,98,84,62,0.00,40.00,8,3,12,0.00
2013-11-2,44,38,27,35,28,23,98,71,43,0.00,40.00,5,2,9,0.00
2013-11-3,46,36,25,29,26,24,98,71,42,0.00,40.00,0,0,0,0.00
2013-11-4,48,43,31,44,34,24,98,73,43,0.00,40.00,0,0,0,0.00
2013-11-5,42,33,25,32,28,21,98,83,44,0.00,40.00,0,0,0,0.00
2013-11-6,38,32,26,32,25,14,98,79,37,0.00,40.00,0,0,0,0.00
2013-11-7,32,24,20,25,22,19,98,94,65,0.00,40.00,1,0,2,0.00
2013-11-8,40,31,19,35,24,18,98,78,50,0.00,40.00,7,3,28,0.00
2013-11-9,41,39,37,38,30,22,98,73,51,0.00,40.00,17,10,30,0.00
2013-11-10,41,37,27,28,23,20,77,58,45,0.00,40.00,9,5,18,0.00
2013-11-11,35,23,14,29,8,0,80,54,35,0.00,40.00,7,4,17,0.00
2013-11-12,28,18,6,11,5,-1,93,62,28,0.00,40.00,6,1,16,0.00
2013-11-13,48,34,19,31,21,10,77,61,33,0.00,40.00,7,1,22,0.00
2013-11-14,49,38,32,33,31,29,94,77,47,0.00,40.00,0,0,0,0.00
2013-11-15,53,41,28,37,32,28,98,72,41,0.00,40.00,3,0,12,0.00
2013-11-16,45,43,42,43,40,33,98,89,70,0.00,40.00,3,1,12,0.00
2013-11-17,46,40,32,45,36,23,98,86,65,0.00,40.00,17,9,35,0.00
2013-11-18,29,26,16,19,16,14,92,68,58,0.00,40.00,14,7,26,0.00
2013-11-19,42,30,14,22,17,13,94,64,36,0.00,40.00,4,0,11,0.00
2013-11-20,43,40,36,32,22,14,85,50,31,0.00,40.00,0,0,3,0.00
2013-11-21,36,31,24,35,25,8,98,79,50,0.00,40.00,0,0,0,0.00
2013-11-22,28,18,9,15,8,-2,90,66,37,0.00,40.00,0,0,0,0.00
2013-11-23,17,10,-3,1,-3,-100,86,59,40,0.00,40.00,0,0,0,0.00
2013-11-24,29,15,-4,10,3,-7,88,63,35,0.00,40.00,1,0,7,0.00
2013-11-25,38,32,28,26,18,10,78,56,42,0.00,40.00,12,0,23,0.00
2013-11-26,29,18,9,19,5,0,80,58,45,0.00,40.00,0,0,17,0.00
2013-11-27,22,13,-3,11,4,-5,89,69,50,0.00,40.00,0,0,2,0.00
2013-11-28,24,20,5,13,9,3,90,65,53,0.00,40.00,0,0,0,0.00
2013-11-29,30,18,1,17,10,-1,93,73,48,0.00,40.00,6,0,14,0.00
2013-11-30,37,29,18,24,20,-100,96,72,54,0.00,40.00,4,0,7,0.00
2013-12-1,31,23,14,26,20,14,98,89,68,0.00,40.00,0,0,2,0.00
2013-12-2,34,30,18,33,29,18,98,97,93,0.00,40.00,0,0,0,0.00
2013-12-3,33,32,29,33,31,27,98,97,90,0.00,40.00,10,4,22,0.00
2013-12-4,29,27,21,29,26,16,98,95,81,0.00,40.00,15,6,26,0.00
2013-12-5,21,6,-3,16,-2,-9,81,70,60,0.00,40.00,18,9,29,0.00
2013-12-6,0,-6,-13,-9,-12,-18,80,75,64,0.00,40.00,9,0,14,0.00
2013-12-7,-1,-13,-24,-13,-21,-100,79,71,52,0.00,40.00,0,0,0,0.00
2013-12-8,10,-1,-19,4,-6,-24,87,80,76,0.00,40.00,0,0,0,0.00
2013-12-9,3,-4,-9,0,-10,-16,87,76,60,0.00,40.00,0,0,0,0.00
2013-12-10,4,-2,-9,-3,-7,-13,84,77,60,0.00,40.00,0,0,0,0.00
2013-12-11,0,-7,-19,-8,-15,-24,84,70,52,0.00,40.00,8,3,14,0.00
2013-12-12,13,4,-9,5,-3,-14,82,71,55,0.00,40.00,6,1,12,0.00
2013-12-13,12,9,6,7,2,0,82,74,67,0.00,40.00,7,1,15,0.00
2013-12-14,15,8,2,6,2,-100,85,78,69,0.00,40.00,4,0,7,0.00
2013-12-15,2,-6,-16,-3,-14,-21,78,68,49,0.00,40.00,1,0,1,0.00
2013-12-16,11,4,-10,10,-1,-16,92,77,62,0.00,40.00,5,2,11,0.00
2013-12-17,28,18,-2,23,11,-7,98,75,50,0.00,40.00,11,-49,22,0.00
2013-12-18,31,16,-2,17,8,-7,94,72,42,0.00,40.00,7,1,24,0.00
2013-12-19,16,14,11,15,9,3,95,79,64,0.00,40.00,7,4,16,0.00
2013-12-20,18,10,2,10,6,0,92,88,67,0.00,40.00,6,1,12,0.00
2013-12-21,21,15,9,14,10,-100,92,85,75,0.00,40.00,0,0,0,0.00
2013-12-22,19,16,9,17,13,6,92,87,76,0.00,40.00,0,0,0,0.00
2013-12-23,9,1,-5,6,-3,-9,87,81,73,0.00,40.00,0,0,0,0.00
2013-12-24,9,-1,-18,6,-6,-21,88,81,63,0.00,40.00,2,0,9,0.00
2013-12-25,20,13,8,18,10,5,91,86,77,0.00,40.00,0,0,0,0.00
2013-12-26,19,13,6,14,9,4,92,84,72,0.00,40.00,0,0,1,0.00
2013-12-27,38,24,6,27,20,4,98,86,59,0.00,40.00,7,1,19,0.00
2013-12-28,34,27,22,33,25,-100,98,96,88,0.00,40.00,4,0,7,0.00
2013-12-29,14,-2,-18,10,-12,-28,84,60,40,0.00,40.00,0,0,0,0.00
2013-12-30,-3,-8,-17,-10,-14,-22,81,75,67,0.00,40.00,2,1,4,0.00
2013-12-31,-5,-15,-25,-10,-21,-29,82,73,55,0.00,40.00,5,2,10,0.00
2014-1-1,-1,-8,-19,-12,-16,-25,77,67,59,0.00,40.00,5,2,9,0.00
2014-1-2,1,-12,-24,-16,-24,-29,76,58,32,0.00,40.00,4,1,6,0.00